Temp
11 10 9 9 9 9 9 9 9 9 9 9 9 9 9 9 9 9 9 8 7 7 7 8 9 9 9 9 9 9 8 8 7 7 7 7 7 7 7 6 6 6 6
10 10 10 9 9 9 9 9 9 9 9 9 9 9 9 9 9 9 9 8 8 8 8 9 9 9 9 9 8 8 8 8 8 7 7 7 7 7 7 7 7 5 5
10 10 10 9 9 9 9 9 8 8 9 9 9 9 9 9 9 9 9 8 7 9 9 9 9 9 9 9 8 8 8 8 8 8 7 7 7 8 7 7 7 6 5
10 10 10 9 9 9 9 9 9 8 8 8 9 9 9 9 9 9 9 9 9 9 9 9 9 9 9 9 8 9 9 9 8 8 8 7 8 8 8 7 7 7 6
9 9 9 9 9 8 8 8 8 8 8 8 8 9 9 9 9 9 9 9 9 9 9 9 9 9 9 9 9 9 9 9 8 8 8 8 8 8 8 8 7 7 7
9 9 9 9 9 8 8 8 8 8 8 8 8 8 9 9 9 9 9 9 9 9 9 9 9 9 9 9 9 9 9 9 9 9 9 9 8 8 8 8 8 7 7
9 8 9 9 9 8 8 8 8 8 8 8 8 8 8 9 9 9 9 9 9 9 9 9 9 9 9 9 9 9 9 9 8 9 8 8 8 8 8 8 7 7 7
8 8 8 8 9 8 8 7 8 8 8 7 7 8 8 8 8 9 9 9 9 9 9 9 9 9 9 9 9 9 9 8 8 8 8 8 8 8 8 7 7 7 7
6 7 7 7 7 7 8 7 7 7 7 7 7 7 8 8 8 8 9 9 9 9 9 9 9 9 9 9 10 9 8 8 8 8 8 8 8 8 8 7 7 7 7
6 6 6 6 7 6 7 7 7 7 7 7 6 7 7 8 8 8 8 9 9 9 9 9 9 9 9 9 9 9 8 8 8 8 8 8 8 8 8 7 7 7 7
5 5 6 6 6 7 6 6 6 6 6 7 7 6 7 7 8 8 8 8 9 9 8 9 9 9 9 9 9 8 8 8 8 8 8 8 7 8 7 7 7 7 7
6 5 5 5 6 6 6 6 6 6 6 6 6 6 6 7 7 8 8 8 8 9 8 8 8 9 9 9 9 8 8 8 8 8 8 7 7 7 7 7 7 7 7
5 5 5 5 5 6 7 6 6 6 6 6 6 6 6 6 6 7 7 8 8 8 8 8 8 8 8 8 8 8 8 8 8 8 7 7 7 7 7 7 6 6 6
5 5 5 4 4 5 6 5 6 5 5 6 6 5 6 6 6 6 7 7 8 8 8 8 8 8 8 8 8 8 8 8 7 7 7 7 7 7 7 7 6 6 6
5 5 5 4 4 4 5 5 5 5 5 5 5 5 5 5 5 5 6 7 7 8 7 8 8 8 8 8 8 8 7 7 7 7 7 7 7 7 6 6 6 6 6
4 4 5 4 4 4 4 4 4 5 5 5 5 6 6 5 5 5 5 6 7 7 7 7 7 7 7 7 7 7 7 7 7 7 7 7 7 7 7 6 6 6 6
3 3 3 3 4 4 4 3 4 4 4 5 5 4 6 5 5 4 4 5 6 7 7 7 7 7 7 7 7 7 7 7 7 7 6 6 6 6 6 6 6 6 6
3 3 3 3 3 3 3 3 3 4 3 4 4 4 5 5 4 4 4 4 6 6 7 7 6 6 7 7 7 7 7 7 6 6 6 6 6 6 6 6 6 5 5
2 2 2 2 3 3 3 3 3 3 4 4 2 4 3 4 4 4 4 3 5 5 6 6 6 6 6 6 6 6 6 6 6 6 6 6 6 6 5 5 5 5 5
1 1 1 2 2 3 3 3 3 3 3 4 3 3 3 2 2 4 4 3 4 5 5 6 6 6 5 6 6 6 6 6 6 6 6 5 5 5 5 5 5 5 4
1 1 1 1 1 2 2 2 2 2 3 2 3 2 2 3 2 1 3 4 3 4 4 5 5 5 5 5 5 5 6 6 5 5 5 5 5 5 5 5 4 4 4
0 0 0 0 0 0 1 1 1 1 1 2 3 3 3 2 1 1 1 2 3 3 4 4 5 5 5 5 5 5 5 5 5 5 5 5 5 4 4 4 4 4 4
-0 -1 -1 -0 0 0 -1 -0 0 0 1 1 2 3 3 2 1 1 1 1 3 3 3 3 4 4 4 4 4 5 5 5 5 5 5 5 4 4 4 4 4 3 3
-1 -1 -1 -2 -1 -1 -1 -1 -0 0 0 1 1 2 2 2 1 2 1 1 2 2 2 2 3 4 4 4 4 4 4 4 4 4 4 4 4 4 4 3 3 3 3
-1 -1 -1 -1 -0 -0 -1 -0 -1 -0 -0 0 0 1 1 0 -0 -0 0 0 1 2 2 2 3 3 3 4 3 3 3 3 3 4 3 4 3 3 3 3 2 3 2
0 -0 -0 -0 0 0 -1 -1 -1 -1 -0 0 0 1 1 -1 -0 -1 0 1 1 1 1 2 2 3 3 3 3 3 3 3 3 3 2 3 3 2 2 2 2 2 2
Height
3151 3152 3153 3153 3154 3155 3155 3156 3156 3156 3157 3158 3158 3157 3157 3157 3157 3158 3158 3158 3159 3159 3158 3158 3158 3158 3158 3158 3158 3157 3156 3156 3155 3155 3155 3155 3155 3155 3155 3155 3155 3155 3155
3150 3151 3151 3152 3153 3154 3154 3155 3156 3156 3155 3156 3157 3158 3157 3156 3157 3157 3157 3158 3158 3158 3158 3158 3159 3159 3158 3158 3157 3156 3156 3155 3155 3155 3155 3155 3155 3155 3155 3155 3155 3155 3155
3148 3149 3149 3150 3151 3152 3154 3154 3155 3155 3155 3155 3155 3156 3156 3156 3155 3155 3156 3157 3157 3158 3158 3158 3159 3159 3159 3158 3157 3156 3156 3155 3155 3155 3156 3155 3156 3155 3155 3155 3155 3155 3155
3147 3147 3148 3148 3149 3150 3152 3153 3153 3154 3154 3154 3154 3154 3154 3155 3155 3155 3155 3155 3156 3157 3158 3158 3158 3158 3158 3158 3157 3155 3155 3155 3155 3155 3154 3153 3154 3155 3154 3154 3154 3154 3155
3146 3147 3147 3146 3147 3148 3150 3150 3151 3152 3153 3153 3152 3152 3153 3153 3154 3155 3155 3154 3155 3155 3156 3157 3158 3158 3157 3157 3156 3155 3155 3155 3155 3155 3154 3154 3154 3154 3154 3154 3154 3154 3155
3143 3144 3144 3145 3145 3146 3148 3148 3149 3149 3150 3151 3151 3151 3150 3152 3152 3153 3154 3154 3154 3154 3155 3156 3156 3156 3156 3155 3155 3154 3155 3155 3155 3155 3154 3154 3154 3153 3153 3153 3154 3154 3154
3140 3140 3141 3143 3143 3144 3145 3146 3146 3147 3147 3148 3149 3150 3150 3150 3151 3151 3152 3153 3154 3153 3154 3154 3154 3154 3155 3154 3154 3153 3155 3155 3154 3155 3154 3154 3153 3153 3152 3152 3153 3154 3154
3135 3136 3138 3139 3140 3141 3142 3143 3143 3144 3145 3146 3147 3148 3149 3149 3149 3150 3151 3151 3152 3152 3153 3153 3153 3153 3153 3153 3153 3154 3154 3154 3155 3154 3154 3154 3153 3153 3152 3153 3152 3153 3153
3130 3131 3133 3134 3135 3136 3138 3139 3140 3141 3142 3144 3145 3145 3146 3148 3148 3148 3149 3149 3149 3150 3151 3151 3151 3151 3152 3152 3152 3154 3154 3154 3154 3154 3154 3154 3153 3153 3152 3151 3152 3152 3152
3123 3125 3127 3129 3131 3132 3134 3135 3136 3137 3138 3140 3140 3141 3143 3144 3146 3147 3147 3147 3147 3148 3149 3149 3149 3149 3150 3150 3152 3153 3153 3153 3153 3153 3153 3153 3152 3152 3152 3152 3151 3151 3151
3116 3117 3119 3122 3124 3126 3128 3130 3131 3132 3134 3135 3137 3138 3139 3141 3143 3144 3145 3145 3145 3146 3146 3147 3147 3147 3148 3148 3151 3151 3152 3152 3152 3152 3152 3153 3152 3151 3151 3151 3151 3151 3150
3110 3111 3111 3114 3116 3119 3121 3123 3126 3127 3129 3131 3133 3134 3135 3137 3139 3140 3141 3143 3143 3144 3144 3144 3145 3145 3146 3147 3149 3150 3150 3151 3151 3151 3152 3152 3152 3152 3151 3151 3151 3150 3150
3104 3104 3104 3105 3107 3110 3113 3117 3118 3121 3124 3126 3127 3130 3131 3134 3135 3136 3138 3139 3140 3141 3141 3143 3143 3144 3144 3145 3147 3148 3148 3149 3149 3150 3151 3151 3151 3151 3151 3150 3149 3149 3148
3096 3097 3097 3098 3099 3101 3103 3107 3110 3114 3117 3120 3122 3125 3127 3130 3132 3132 3134 3135 3136 3138 3138 3140 3141 3142 3143 3143 3145 3146 3146 3147 3148 3148 3149 3150 3149 3149 3149 3149 3148 3148 3147
3086 3090 3089 3090 3092 3093 3095 3098 3101 3105 3109 3113 3114 3118 3122 3125 3127 3128 3129 3130 3132 3134 3135 3136 3138 3140 3141 3142 3143 3144 3144 3145 3146 3146 3146 3147 3147 3147 3147 3147 3147 3146 3146
3076 3078 3080 3080 3083 3084 3086 3089 3092 3095 3101 3101 3108 3110 3114 3118 3121 3124 3125 3126 3127 3129 3131 3133 3134 3136 3138 3139 3140 3142 3142 3142 3144 3144 3144 3145 3145 3145 3145 3145 3144 3144 3143
3069 3070 3070 3072 3075 3076 3079 3080 3083 3088 3090 3096 3097 3097 3101 3108 3113 3118 3120 3122 3123 3125 3127 3129 3131 3132 3135 3136 3137 3138 3140 3140 3141 3142 3142 3142 3142 3143 3143 3143 3143 3142 3141
3060 3062 3063 3065 3067 3069 3071 3072 3075 3078 3082 3083 3088 3080 3088 3096 3104 3109 3113 3116 3118 3120 3122 3125 3126 3128 3130 3132 3133 3135 3136 3137 3138 3138 3139 3139 3139 3139 3140 3140 3140 3140 3139
3053 3055 3056 3057 3060 3061 3063 3065 3067 3069 3073 3078 3079 3082 3081 3085 3091 3098 3105 3109 3113 3115 3118 3120 3122 3125 3126 3128 3130 3131 3133 3134 3135 3135 3136 3136 3136 3137 3137 3136 3136 3136 3136
3050 3050 3051 3051 3052 3053 3055 3056 3059 3061 3064 3069 3072 3078 3080 3078 3086 3092 3098 3103 3106 3109 3112 3116 3118 3120 3122 3124 3126 3127 3129 3131 3132 3132 3133 3133 3133 3134 3134 3134 3132 3131 3131
3046 3047 3046 3045 3045 3046 3047 3048 3050 3053 3057 3060 3064 3068 3074 3077 3079 3082 3089 3094 3099 3102 3107 3111 3113 3115 3117 3120 3122 3124 3126 3128 3129 3129 3130 3131 3131 3131 3131 3131 3130 3129 3126
3040 3039 3038 3038 3038 3038 3039 3040 3042 3045 3047 3052 3056 3062 3065 3068 3075 3080 3079 3084 3091 3095 3101 3106 3109 3111 3113 3116 3119 3120 3122 3124 3125 3125 3126 3127 3127 3127 3127 3127 3126 3125 3125
3030 3029 3029 3029 3028 3030 3032 3032 3034 3036 3040 3043 3047 3052 3058 3063 3068 3074 3077 3080 3086 3090 3095 3100 3104 3107 3110 3113 3115 3117 3119 3121 3122 3122 3122 3123 3123 3123 3123 3123 3122 3121 3120
3020 3018 3018 3018 3018 3018 3021 3024 3025 3028 3032 3037 3042 3046 3050 3056 3061 3064 3070 3073 3077 3084 3090 3096 3100 3103 3106 3109 3112 3114 3116 3118 3118 3119 3119 3118 3118 3118 3118 3118 3118 3116 3115
3004 3002 3004 3004 3002 3006 3009 3012 3016 3018 3023 3029 3034 3039 3042 3048 3055 3058 3063 3072 3073 3078 3085 3091 3095 3099 3103 3105 3107 3110 3112 3113 3114 3115 3114 3114 3114 3114 3114 3114 3112 3110 3109
2985 2983 2982 2982 2981 2987 2992 2998 3005 3009 3013 3018 3024 3030 3035 3041 3046 3052 3057 3065 3069 3074 3079 3086 3091 3095 3099 3101 3104 3106 3108 3110 3111 3112 3111 3110 3110 3110 3109 3109 3107 3106 3104
Wind_Speed
5 6 8 10 10 8 7 9 9 8 7 6 7 8 8 7 6 5 5 6 10 10 8 4 2 1 0 1 2 4 5 5 4 4 3 1 0 1 3 3 3 4 4
7 7 9 11 12 10 9 9 11 10 9 7 8 8 8 8 7 6 6 6 9 14 10 6 3 2 1 2 3 4 4 4 4 2 2 1 2 3 2 2 4 4 5
11 10 11 12 13 12 11 10 11 12 10 8 9 8 8 8 8 7 6 7 7 6 6 5 4 2 2 3 4 5 4 2 0 1 1 3 2 3 3 2 2 3 6
11 12 11 13 14 14 13 12 12 13 12 10 10 10 9 9 8 7 8 9 9 6 5 4 4 3 3 4 4 5 3 1 1 4 2 6 4 2 3 3 2 1 3
6 8 12 14 15 16 16 14 14 14 13 12 11 11 10 8 7 7 8 9 9 8 6 5 4 4 4 5 5 5 2 1 2 3 2 3 1 1 1 2 1 1 2
17 14 14 16 16 17 18 18 16 16 15 15 14 13 11 9 8 7 8 9 9 8 8 7 6 5 5 6 5 6 3 1 2 2 3 2 1 0 1 1 2 2 3
25 20 19 19 19 19 20 21 19 18 18 17 15 13 12 11 10 10 10 10 9 9 8 8 7 6 7 6 6 6 3 2 2 2 2 2 2 2 1 2 2 3 4
28 26 22 21 22 22 23 24 23 21 19 17 15 14 13 13 11 11 11 10 10 10 10 9 8 8 8 7 7 6 4 2 2 3 3 3 3 3 2 1 2 3 2
25 27 24 20 22 21 26 27 26 24 21 20 19 17 14 14 13 12 12 12 11 11 11 10 10 9 9 9 9 5 3 1 2 3 3 2 3 3 2 1 2 2 2
26 28 28 28 24 24 23 26 26 27 25 25 23 22 17 15 15 14 14 13 13 12 12 12 11 11 10 10 7 5 3 2 2 3 3 3 3 3 1 3 2 2 2
26 27 27 33 32 30 27 25 29 27 27 29 25 26 22 18 15 16 16 15 15 14 13 13 13 13 12 12 8 6 4 4 3 3 3 3 1 2 2 1 1 2 3
22 25 31 31 35 37 33 33 30 32 31 29 27 28 25 21 18 18 17 17 16 15 15 15 15 15 14 12 10 8 7 5 4 3 2 2 2 1 2 2 2 4 5
27 27 25 31 35 37 40 34 36 35 37 34 30 31 28 24 21 19 18 18 18 17 17 16 16 16 15 14 12 10 8 6 5 4 3 4 4 3 3 3 3 5 6
33 29 31 29 32 36 39 39 38 36 38 39 36 32 30 27 24 22 20 19 19 19 17 17 16 17 16 15 13 11 11 9 8 7 6 6 6 5 5 5 5 6 8
35 34 34 35 33 34 38 40 41 41 39 39 40 37 33 30 27 25 22 21 21 20 19 17 17 17 16 16 15 13 13 12 10 9 8 7 7 7 7 7 7 7 8
29 35 37 37 36 36 37 39 44 42 45 40 42 41 36 33 31 27 24 23 22 22 20 19 18 18 17 17 16 15 15 14 12 11 10 9 9 9 9 9 9 9 9
27 28 34 36 36 37 37 40 41 46 43 45 48 51 45 32 33 30 25 24 24 23 21 20 20 19 19 19 19 18 17 16 14 12 12 10 10 11 11 11 12 12 11
25 24 29 29 32 36 38 39 42 42 49 37 56 42 38 43 37 32 26 24 24 23 22 21 21 20 19 19 20 19 18 17 16 14 14 13 12 12 13 12 12 14 14
21 20 23 25 28 32 34 36 40 45 46 51 44 53 37 50 36 30 29 25 25 24 24 23 22 21 20 20 20 20 19 18 17 16 15 15 14 14 14 13 13 14 15
12 15 20 24 25 28 35 36 38 43 46 47 48 51 50 39 27 40 34 26 25 24 24 24 23 22 22 22 21 21 20 19 18 18 16 16 15 15 15 14 13 13 14
18 20 21 21 24 27 29 36 40 41 44 45 49 40 42 57 42 30 35 33 26 24 24 24 24 23 23 22 22 21 20 19 18 18 17 17 15 15 15 15 16 16 15
27 27 29 30 27 25 28 32 36 37 41 42 43 44 45 37 47 36 30 32 29 25 24 24 25 24 22 23 21 21 21 19 19 18 17 16 15 15 15 15 15 16 17
34 33 34 35 36 35 33 30 34 35 38 37 39 42 38 35 37 52 37 38 29 25 24 24 25 24 22 21 21 21 19 19 18 17 16 15 15 15 15 15 16 18 19
39 40 35 39 43 41 47 41 34 37 36 36 33 34 37 32 27 32 34 38 29 26 24 24 24 24 23 21 20 19 18 17 15 17 16 15 16 17 17 16 16 18 20
50 52 52 53 57 57 51 47 37 35 37 34 34 33 34 31 32 27 37 30 33 28 25 24 23 23 22 22 20 19 18 18 18 17 16 15 16 17 16 18 18 19 21
63 62 63 62 61 57 46 46 41 37 36 36 33 36 33 33 29 28 27 46 41 30 27 25 24 23 22 20 20 19 19 18 17 16 14 15 14 16 18 18 20 22 24
Wind_Direction
189 216 200 196 200 207 209 217 217 208 222 235 229 214 201 202 206 209 201 192 193 199 204 216 197 167 103 328 330 323 323 316 319 327 331 326 357 185 174 179 149 123 117
198 209 209 201 202 210 218 222 226 221 221 223 228 230 218 205 203 209 207 207 221 212 216 202 196 209 248 296 308 304 305 309 328 333 306 268 185 130 178 183 133 127 125
195 197 203 202 202 211 225 229 231 232 231 223 219 223 229 225 206 200 204 197 178 186 182 188 191 213 260 278 293 297 296 301 291 108 142 175 117 129 132 145 127 136 142
197 205 205 199 204 211 222 232 234 239 236 232 225 224 226 228 210 206 197 199 204 204 203 207 211 236 268 284 291 286 290 325 82 91 118 102 101 93 95 97 87 155 158
218 231 228 209 206 214 222 226 233 237 244 246 243 233 228 226 222 222 212 199 203 204 208 212 226 243 255 275 278 276 287 82 93 80 86 81 87 82 49 64 97 158 170
255 259 246 229 216 217 227 228 230 235 240 251 254 244 216 221 225 228 226 219 214 213 212 214 220 242 252 262 258 262 271 28 57 49 18 7 17 198 212 217 181 171 167
250 262 256 244 231 227 228 235 233 233 238 245 260 244 230 227 227 228 226 226 229 223 222 220 224 234 245 254 250 256 266 272 350 12 357 337 312 306 275 243 205 193 185
256 256 261 255 245 236 232 233 237 236 237 240 243 244 247 242 231 236 235 227 232 234 230 227 229 234 239 247 246 252 252 284 326 341 321 329 316 310 311 295 210 211 206
249 252 250 242 241 246 239 236 237 237 236 235 226 232 247 253 250 238 241 239 231 236 236 234 233 233 236 239 242 241 249 288 312 295 309 313 310 311 312 253 124 198 179
251 249 246 244 240 238 237 237 237 238 237 232 228 231 241 245 253 253 246 243 241 237 238 240 237 231 231 233 235 236 227 260 284 303 305 311 314 284 2 129 161 191 211
253 247 242 239 239 238 235 236 233 238 240 239 238 236 239 242 245 251 252 250 245 242 241 240 237 231 229 230 223 221 213 217 241 262 282 317 12 127 120 153 174 224 240
256 250 249 238 236 238 237 235 239 234 240 242 243 241 240 241 243 247 249 252 250 244 245 241 236 231 227 227 222 216 217 220 210 231 254 281 224 232 210 222 252 261 270
255 255 254 247 240 235 235 235 235 240 238 240 241 245 242 242 242 246 248 249 252 247 245 245 237 234 228 224 219 213 219 225 223 233 223 250 263 265 263 254 259 274 281
253 249 246 251 247 240 235 230 237 235 241 239 242 245 248 245 244 244 245 246 246 249 244 244 239 235 231 230 224 214 215 215 216 216 219 231 240 249 257 268 273 277 287
254 248 250 247 247 246 238 234 232 233 244 242 243 245 248 245 246 244 244 245 246 245 247 238 237 235 234 234 230 219 223 219 215 220 225 233 243 245 262 266 268 272 281
256 247 246 248 244 243 241 236 231 231 231 240 245 242 246 249 236 240 244 246 244 242 240 238 230 231 232 233 233 225 221 226 224 228 229 229 241 250 257 266 272 277 281
253 251 249 248 245 243 242 238 238 232 233 237 238 236 236 229 234 233 239 245 245 241 237 236 232 228 230 230 232 228 222 227 230 233 239 238 247 257 264 272 279 283 284
257 251 249 248 245 246 243 241 239 237 235 242 238 233 234 225 230 226 232 242 243 242 237 231 231 229 229 231 232 229 225 224 231 234 241 246 252 257 264 273 281 285 289
265 256 249 250 248 246 245 243 240 241 237 233 242 233 252 233 223 214 224 233 238 239 236 230 227 229 229 230 231 230 226 226 230 236 242 249 253 259 264 268 276 285 291
274 282 278 261 254 251 248 244 241 240 244 240 241 245 241 250 241 222 223 226 231 234 235 233 228 227 228 229 228 227 226 227 231 236 241 248 255 261 266 270 271 274 282
307 293 291 279 274 263 253 248 246 242 240 242 243 243 242 242 237 249 229 217 223 227 231 231 229 226 227 228 227 227 229 231 234 239 241 244 252 259 267 272 278 281 278
297 295 292 287 284 281 261 255 248 247 247 244 243 244 242 243 245 255 246 207 213 217 224 230 231 230 227 227 227 227 232 234 237 240 246 252 256 260 265 272 277 280 287
282 280 285 286 286 284 282 259 248 241 242 243 242 242 242 235 232 242 242 223 211 213 217 222 229 228 224 227 228 231 236 241 242 241 246 252 256 263 269 274 278 285 290
266 266 264 270 274 278 280 269 256 245 238 237 241 241 238 232 236 239 243 251 205 209 216 221 222 223 221 221 227 234 236 237 242 244 245 246 252 259 263 269 278 284 288
267 265 265 264 266 261 270 260 259 247 238 230 227 231 237 225 233 231 228 244 209 204 210 216 219 219 221 222 222 225 231 235 235 237 240 246 248 261 270 275 278 284 288
273 272 273 271 264 260 256 243 249 246 235 229 220 221 223 221 226 237 232 241 209 200 201 210 213 215 220 223 225 225 226 230 237 239 240 244 254 262 272 280 287 290 290